Theta_e
309 306 307 308 307 308 309 309 310 309 309 311 310 309 308 304 302 301 299 298 297 296 295 294 294 295 297 300 301 302 305 307 314 316 315 309 308 310 314 314 315 318 320 321
309 308 308 307 307 308 309 311 310 309 309 309 309 309 304 303 302 300 298 297 296 295 294 294 293 293 293 295 297 300 301 303 305 305 305 304 304 302 302 303 307 309 311 312
310 312 310 309 309 311 311 311 311 312 310 308 307 308 307 303 300 299 297 296 296 295 294 293 292 292 293 293 294 296 297 300 301 303 304 304 304 302 302 300 301 300 302 304
309 309 312 311 312 312 315 311 312 312 310 312 307 312 309 305 302 299 297 295 295 294 293 292 291 291 291 292 293 293 294 295 296 298 299 299 295 293 292 293 294 295 297 298
314 311 312 313 312 311 314 309 309 309 308 308 308 309 307 304 304 300 298 296 295 294 293 291 291 290 290 291 292 292 294 294 293 293 292 289 288 287 287 288 289 289 288 289
311 307 308 311 308 309 307 309 308 306 306 311 309 310 310 307 306 301 298 296 295 293 292 292 291 290 289 289 289 289 289 289 289 290 290 288 287 286 286 285 285 285 285 285
310 310 308 309 311 308 308 312 316 312 311 315 309 309 309 305 302 301 298 295 294 292 291 291 290 290 288 288 288 288 287 286 286 286 286 286 285 285 285 285 285 285 285 285
315 318 309 309 310 311 309 312 313 308 314 313 310 316 314 301 299 298 296 294 293 292 291 290 291 290 289 288 287 287 287 286 286 285 285 285 285 285 285 285 285 285 285 284
316 317 308 307 307 310 309 311 309 311 299 311 312 310 305 300 298 297 296 294 293 292 291 290 290 290 289 287 287 286 286 286 286 285 285 285 285 285 285 285 285 285 284 284
313 316 311 308 308 305 309 307 313 309 308 308 310 311 311 303 300 297 296 295 294 292 291 290 290 290 289 288 287 286 286 286 286 286 286 286 286 286 286 286 285 285 284 284
311 312 312 310 310 310 308 309 308 310 306 305 304 308 304 305 301 298 296 295 294 293 291 289 289 289 289 288 287 287 286 286 286 286 286 286 286 286 286 286 285 285 284 283
311 310 308 312 308 306 307 308 307 312 309 307 309 310 303 303 301 298 297 296 294 293 291 289 289 288 288 288 287 287 286 286 287 287 287 287 286 286 286 286 285 284 283 283
311 309 305 308 307 307 309 308 306 306 304 305 308 309 302 300 298 297 297 296 295 293 290 287 287 287 287 287 287 287 287 287 287 287 287 286 286 286 285 285 284 282 281 281
309 306 307 313 307 306 308 308 306 302 301 304 310 307 303 302 300 298 297 295 294 293 289 286 286 287 288 288 287 287 287 287 287 286 286 286 285 284 284 283 282 280 280 279
308 308 305 304 304 304 304 304 305 304 305 306 306 305 303 302 300 298 295 293 294 290 287 287 286 286 287 287 287 287 287 287 286 286 285 285 284 283 282 280 279 278 277 276
301 302 301 305 301 303 305 303 304 304 304 303 303 304 302 296 296 294 293 292 294 290 287 285 286 286 286 287 287 287 287 286 285 285 285 283 282 281 280 279 277 276 275 275
301 300 301 309 295 295 299 297 300 301 300 302 304 302 289 293 292 292 291 288 291 290 288 286 285 286 287 288 288 287 287 286 285 284 283 282 281 281 279 277 276 275 274 273
301 301 301 299 292 301 300 291 293 295 295 291 292 288 289 291 291 289 288 288 287 286 286 285 287 288 289 289 288 287 286 285 283 283 283 283 281 279 277 277 275 274 273 271
297 299 294 302 295 297 298 293 291 291 292 290 292 289 290 289 287 287 286 286 286 286 287 288 289 289 289 288 287 286 284 283 282 282 281 279 277 276 275 275 273 272 270 269
296 299 304 288 296 298 294 288 288 289 289 283 284 285 287 286 286 287 286 286 286 288 289 289 289 288 287 286 285 284 283 282 281 279 277 276 275 274 273 271 270 269 268 267
289 293 300 294 299 291 289 289 289 289 290 283 283 286 285 286 287 287 287 285 287 288 289 289 288 288 287 285 283 282 281 279 277 276 275 274 273 272 271 270 269 268 267 265
290 290 291 289 294 292 286 288 291 290 288 287 285 287 286 287 287 287 286 285 286 286 287 288 287 286 285 283 281 279 277 275 275 274 273 273 272 271 270 269 269 267 266 264
289 290 288 290 289 288 286 289 289 289 289 288 288 288 287 287 287 286 286 285 285 286 287 286 285 283 281 279 278 276 274 273 272 272 271 271 270 269 269 268 267 266 264 263
288 286 287 287 288 287 288 288 289 288 288 288 288 288 286 286 286 286 284 284 284 285 285 284 282 280 277 276 275 274 272 271 270 270 269 268 268 267 267 266 266 265 264 263
288 287 286 286 288 288 288 288 289 288 287 287 286 286 286 285 285 285 285 283 284 284 283 281 280 278 276 275 273 271 270 270 269 268 267 267 266 266 265 265 265 264 264 265
287 287 288 287 289 288 288 287 287 287 287 286 286 285 284 284 285 284 283 284 284 282 279 277 276 276 274 273 271 270 269 268 268 267 266 266 265 265 264 263 264 267 266 267
Wind_Speed
1 3 7 13 11 2 3 4 5 4 4 3 6 8 4 5 9 8 7 8 8 9 11 19 23 27 29 31 32 33 32 29 22 18 17 23 24 19 20 18 15 12 7 5
3 7 12 4 4 4 3 3 6 6 4 5 7 10 6 7 5 5 7 7 6 5 7 14 23 28 32 32 33 34 33 31 28 26 21 18 17 28 27 26 24 20 17 14
8 6 3 8 5 5 4 5 5 7 3 1 4 7 4 4 7 8 7 6 6 5 6 10 17 23 28 32 33 34 34 32 29 23 18 18 16 21 24 26 25 26 22 20
6 4 5 4 5 7 3 7 3 3 2 2 2 4 3 5 5 4 4 5 6 5 5 8 12 20 24 27 30 33 34 34 32 29 29 29 29 27 23 24 24 25 24 23
7 5 5 4 6 6 6 4 4 2 3 3 3 1 6 6 4 4 5 5 5 4 5 6 11 17 20 23 27 28 29 31 31 31 31 32 31 28 27 27 27 27 28 28
6 2 5 8 3 6 5 4 5 4 3 0 7 7 4 5 4 6 5 6 6 5 5 7 11 15 18 20 23 26 28 29 27 26 27 28 28 27 27 27 28 28 27 27
1 3 1 2 5 3 4 5 2 3 2 5 3 4 7 4 5 9 13 9 8 6 5 5 8 12 15 18 19 23 24 26 25 26 27 26 26 25 25 24 23 23 24 25
6 3 8 4 5 6 6 7 5 6 3 4 4 6 4 2 4 9 9 8 7 7 6 6 8 11 13 15 17 18 20 21 22 23 23 23 23 23 23 22 22 23 22 21
5 4 1 2 2 4 4 4 4 6 2 1 4 4 1 4 4 6 8 7 8 8 7 7 10 11 12 13 13 14 16 16 17 17 17 19 19 19 19 19 20 20 20 21
5 2 2 3 4 3 4 6 3 2 1 4 5 6 5 8 10 7 8 10 8 8 7 6 11 12 11 11 11 11 11 13 13 12 14 15 15 16 17 18 20 20 21 21
6 3 1 3 6 8 2 2 4 3 5 5 2 5 4 11 13 15 13 10 10 8 8 7 13 13 12 11 10 9 9 9 9 9 9 10 12 14 16 18 20 22 23 25
6 5 4 8 1 3 2 7 7 5 6 3 2 9 4 6 11 11 10 10 7 7 7 10 17 16 14 12 11 9 7 6 5 4 5 7 10 14 17 19 21 22 23 24
8 2 2 6 3 2 4 4 3 5 4 7 5 6 3 4 7 9 9 8 7 8 8 8 15 16 16 14 12 10 8 5 3 1 2 5 9 12 16 20 22 23 24 25
5 3 7 10 6 5 4 5 5 5 4 5 14 7 2 3 7 6 7 6 7 7 8 7 9 17 17 17 15 13 11 9 8 7 6 5 7 11 15 19 21 23 25 28
5 7 4 2 2 3 4 6 10 8 8 10 6 11 4 8 9 10 8 5 5 6 8 10 8 15 18 17 17 15 15 15 13 12 10 8 8 11 15 18 20 23 27 28
2 2 2 2 1 2 4 6 8 7 5 7 8 18 8 4 6 6 8 6 7 8 8 8 10 14 17 20 20 18 17 16 15 13 10 7 9 13 16 19 24 29 31 32
6 6 4 7 3 2 8 10 15 7 8 9 14 16 3 5 7 8 8 7 8 7 8 8 10 17 19 20 20 19 17 15 15 12 8 8 11 16 20 24 29 32 34 34
6 5 2 3 1 5 5 2 3 7 7 5 2 3 4 4 4 5 7 7 8 7 7 7 11 12 15 17 17 16 14 14 13 10 10 13 16 19 22 27 29 32 33 33
2 5 2 3 4 7 8 5 7 7 9 8 9 4 4 2 2 4 6 6 7 7 11 13 12 15 18 19 17 16 15 13 10 10 11 13 15 20 22 25 28 30 32 34
2 4 4 4 5 9 4 1 3 5 5 7 6 5 6 5 1 6 5 6 8 13 12 14 15 15 16 18 19 18 16 13 11 11 11 13 16 18 21 24 26 28 29 32
3 0 8 6 7 7 5 5 3 5 7 5 6 6 7 5 7 5 4 6 17 16 17 17 17 19 22 20 19 17 14 12 11 11 12 14 15 18 20 23 24 27 29 29
7 8 5 2 3 8 7 5 8 5 0 6 6 6 7 8 8 6 6 8 13 16 17 18 18 21 21 22 20 16 13 12 12 13 13 14 15 16 19 22 24 25 27 28
3 7 6 9 6 2 7 6 12 6 6 6 6 7 9 7 8 8 8 9 15 23 23 20 22 22 21 20 18 15 12 11 12 12 13 14 15 16 17 20 23 26 25 23
6 4 3 4 5 7 9 9 5 7 7 6 6 7 7 9 9 9 7 7 12 19 20 21 21 23 24 21 17 14 12 11 12 13 12 14 16 17 18 18 20 23 24 21
5 7 7 3 5 3 8 8 8 9 8 6 5 7 10 8 10 9 8 8 16 16 16 20 24 24 25 20 16 13 12 12 13 13 13 14 15 17 19 19 19 20 22 21
6 6 4 5 9 6 7 7 10 10 10 11 10 8 9 10 11 8 8 16 15 16 16 19 21 19 18 17 15 13 13 13 13 14 13 14 16 17 17 19 23 20 19 20
Wind_Direction
25 120 207 203 201 172 151 186 231 264 267 344 257 257 334 21 64 77 69 66 59 44 22 31 42 55 60 59 57 54 55 54 66 73 67 64 62 65 64 61 57 48 31 4
65 224 232 144 171 211 251 238 262 281 271 172 289 281 72 37 52 77 88 75 68 55 32 34 44 53 56 59 61 61 60 58 61 65 75 78 78 66 61 59 59 57 52 45
179 215 151 175 164 167 215 192 218 228 335 286 331 291 163 59 80 78 69 74 51 46 43 27 32 49 60 62 64 66 66 66 67 75 84 79 70 59 52 50 49 46 46 45
236 242 176 170 186 158 241 214 212 190 95 227 31 278 309 138 100 65 74 76 90 71 49 43 44 53 61 65 69 69 70 72 72 74 75 75 71 66 58 57 54 51 46 42
237 173 165 185 218 157 228 148 148 119 117 70 288 304 263 117 174 177 163 136 123 101 93 76 73 78 77 75 76 77 76 73 72 72 74 75 74 72 68 63 61 58 52 48
234 247 182 193 123 156 137 111 69 64 103 262 233 180 263 193 203 169 176 166 162 144 125 111 97 88 83 81 78 77 75 76 76 79 80 78 75 69 64 57 52 48 48 44
212 223 201 174 94 55 88 70 321 338 355 227 131 133 245 296 297 186 168 170 175 166 158 134 107 93 85 81 83 83 81 77 75 75 75 74 73 67 62 55 51 44 38 35
166 242 167 190 182 177 176 160 162 220 200 282 319 231 258 320 341 128 140 160 168 178 175 156 138 117 105 96 90 91 89 88 81 76 71 65 62 60 54 47 40 36 29 28
149 265 105 100 92 131 185 177 165 106 50 48 249 293 219 93 88 123 155 175 193 197 184 176 158 139 123 112 105 101 97 95 85 80 73 65 58 51 46 38 30 22 18 13
200 120 206 147 103 21 158 163 87 22 162 249 277 274 226 198 195 190 195 203 201 208 188 177 166 156 146 134 124 117 105 96 90 81 70 62 51 42 34 24 17 9 6 2
136 119 242 109 189 181 131 180 73 126 145 180 257 256 237 192 183 191 203 208 207 202 192 178 178 173 163 157 152 136 122 109 100 84 74 60 45 30 18 11 3 357 354 352
182 143 178 201 116 302 214 187 159 187 234 244 163 260 354 176 187 181 198 212 215 202 197 184 181 176 178 177 172 163 152 138 112 88 54 27 12 4 359 354 350 346 343 340
175 203 71 344 13 0 213 203 148 105 66 201 178 263 32 79 152 192 196 212 222 215 190 179 182 185 188 189 190 189 187 189 194 242 337 341 343 342 343 342 339 336 335 332
132 145 168 226 191 137 183 206 178 141 149 184 230 257 205 199 213 203 217 220 244 223 190 181 184 196 198 199 201 205 210 214 221 230 243 275 309 325 330 332 330 329 329 328
149 208 149 27 99 126 194 193 178 188 208 202 217 229 195 200 206 210 222 242 215 204 191 195 192 200 204 208 213 218 223 225 225 226 236 260 296 316 323 326 325 325 325 323
28 153 103 222 321 309 273 201 221 219 225 256 258 264 268 169 216 230 241 245 225 219 211 193 200 203 212 217 223 227 231 229 224 226 229 268 305 319 321 320 322 323 322 321
137 134 123 238 67 62 285 218 206 199 207 215 232 246 153 185 202 218 228 220 218 210 197 197 203 215 226 233 241 242 239 226 218 220 247 287 305 311 313 317 320 322 322 322
139 114 130 155 132 222 251 124 125 213 257 207 283 229 191 193 212 231 228 206 209 196 183 192 207 223 236 242 244 239 219 204 211 236 273 294 301 307 313 317 319 319 320 319
61 132 144 201 209 320 274 192 169 170 258 201 211 208 201 150 40 277 207 199 195 197 202 201 222 243 249 244 230 210 201 208 227 258 279 290 298 308 313 314 317 318 318 317
97 26 208 132 188 228 278 12 78 98 276 217 157 174 160 125 123 259 213 204 206 198 212 230 244 252 246 231 212 207 209 220 237 256 272 286 302 308 311 313 314 316 315 313
98 8 214 206 232 283 206 172 156 112 243 158 181 172 152 181 208 210 203 204 206 221 234 242 243 241 239 218 208 210 218 231 247 260 273 289 300 306 310 311 313 314 314 312
154 170 204 84 215 267 159 71 163 202 184 174 191 195 188 218 238 224 220 217 215 231 241 238 233 227 221 211 208 213 220 235 251 266 278 288 297 303 307 308 312 314 316 311
234 200 183 181 204 240 210 182 215 175 174 204 190 211 208 217 225 228 229 224 235 238 245 243 226 213 206 208 214 216 226 239 257 268 282 291 297 303 306 308 313 314 314 303
243 149 149 104 207 215 208 234 247 204 226 202 205 211 189 214 229 238 241 243 239 247 238 232 212 206 204 210 216 224 232 248 259 269 277 292 301 305 308 309 311 307 307 298
194 126 149 265 270 152 241 227 231 226 228 252 240 219 219 205 241 228 245 241 246 244 228 217 206 204 211 211 219 232 245 254 260 268 280 291 298 303 307 309 309 306 302 298
159 157 167 214 223 182 232 211 218 225 234 228 230 251 238 206 232 224 238 249 247 229 210 205 205 208 208 213 223 240 252 254 259 266 278 292 299 304 307 310 315 317 302 307